| time (UTC) | temp F | wind direction | speed knots | gust knots | rain 1hr in | rain 24hr in | rain mn in | humidity % | barometer mb |
| 20260504050314 | 45 | 234 | 7.0 | 7.8 | 0.05 | 0.05 | 0.05 | 91 | 990.2 |
| 20260504050234 | 45 | 235 | 6.1 | 8.7 | 0.05 | 0.05 | 0.05 | 91 | 990.1 |
| 20260504045314 | 46 | 236 | 7.0 | 7.8 | 0.05 | 0.05 | 0.05 | 90 | 990.5 |
| 20260504044734 | 46 | 250 | 10.4 | 10.4 | 0.05 | 0.05 | 0.05 | 90 | 990.6 |
| 20260504044314 | 46 | 250 | 7.8 | 8.7 | 0.05 | 0.05 | 0.05 | 89 | 990.4 |
| 20260504043314 | 47 | 277 | 6.1 | 8.7 | 0.04 | 0.04 | 0.04 | 87 | 991.1 |
| 20260504043234 | 47 | 277 | 7.0 | 8.7 | 0.04 | 0.04 | 0.04 | 87 | 991.2 |
| 20260504042314 | 47 | 286 | 10.4 | 15.6 | 0.02 | 0.02 | 0.02 | 84 | 991.6 |
| 20260504041735 | 48 | 292 | 17.4 | 20.0 | 0.00 | 0.00 | 0.00 | 81 | 991.7 |
| 20260504041313 | 49 | 295 | 20.0 | 26.9 | 0.00 | 0.00 | 0.00 | 78 | 991.7 |
| 20260504040313 | 51 | 294 | 20.0 | 26.9 | 0.00 | 0.00 | 0.00 | 71 | 991.3 |
| 20260504040235 | 51 | 289 | 21.7 | 33.0 | 0.00 | 0.00 | 0.00 | 70 | 991.4 |
| 20260504035313 | 53 | 300 | 22.6 | 33.0 | 0.00 | 0.00 | 0.00 | 65 | 991.3 |
| 20260504034735 | 53 | 308 | 20.9 | 31.3 | 0.00 | 0.00 | 0.00 | 62 | 991.1 |
| 20260504034313 | 54 | 305 | 24.3 | 33.0 | 0.00 | 0.00 | 0.00 | 60 | 990.9 |
| 20260504033313 | 55 | 306 | 17.4 | 28.7 | 0.00 | 0.00 | 0.00 | 57 | 990.4 |
| 20260504033235 | 55 | 314 | 19.1 | 28.7 | 0.00 | 0.00 | 0.00 | 56 | 990.4 |
| 20260504032315 | 57 | 291 | 22.6 | 30.4 | 0.00 | 0.00 | 0.00 | 53 | 990.3 |
| 20260504031735 | 58 | 306 | 19.1 | 24.3 | 0.00 | 0.00 | 0.00 | 50 | 990.2 |
| 20260504031313 | 58 | 316 | 17.4 | 25.2 | 0.00 | 0.00 | 0.00 | 50 | 990.2 |
| 20260504030313 | 58 | 309 | 17.4 | 26.9 | 0.00 | 0.00 | 0.00 | 47 | 990.2 |
| 20260504030235 | 58 | 312 | 12.2 | 26.9 | 0.00 | 0.00 | 0.00 | 47 | 990.2 |
| 20260504025313 | 59 | 313 | 8.7 | 13.0 | 0.00 | 0.00 | 0.00 | 46 | 990.4 |
| 20260504024735 | 60 | 316 | 8.7 | 14.8 | 0.00 | 0.00 | 0.00 | 46 | 990.3 |
| 20260504024313 | 60 | 331 | 7.8 | 17.4 | 0.00 | 0.00 | 0.00 | 46 | 990.3 |
| 20260504023315 | 60 | 305 | 12.2 | 17.4 | 0.00 | 0.00 | 0.00 | 45 | 989.9 |
| 20260504023235 | 61 | 311 | 12.2 | 17.4 | 0.00 | 0.00 | 0.00 | 46 | 989.9 |
| 20260504022314 | 60 | 319 | 12.2 | 14.8 | 0.00 | 0.00 | 0.00 | 49 | 989.5 |
| 20260504021734 | 60 | 321 | 11.3 | 18.2 | 0.00 | 0.00 | 0.00 | 57 | 989.5 |
| 20260504021313 | 60 | 309 | 11.3 | 13.0 | 0.00 | 0.00 | 0.00 | 60 | 989.4 |
| 20260504020313 | 60 | 272 | 11.3 | 13.9 | 0.00 | 0.00 | 0.00 | 59 | 989.5 |
| 20260504020235 | 60 | 268 | 10.4 | 11.3 | 0.00 | 0.00 | 0.00 | 59 | 989.5 |
| 20260504015313 | 61 | 250 | 19.1 | 20.0 | 0.00 | 0.00 | 0.00 | 56 | 989.5 |
| 20260504014735 | 61 | 250 | 21.7 | 24.3 | 0.00 | 0.00 | 0.00 | 56 | 989.5 |
| 20260504014313 | 62 | 248 | 18.2 | 15.6 | 0.00 | 0.00 | 0.00 | 55 | 989.4 |
| 20260504013313 | 63 | 285 | 11.3 | 25.2 | 0.00 | 0.00 | 0.00 | 47 | 989.8 |
| 20260504013235 | 64 | 280 | 7.8 | 11.3 | 0.00 | 0.00 | 0.00 | 47 | 989.7 |
| 20260504012313 | 64 | 253 | 11.3 | 12.2 | 0.00 | 0.00 | 0.00 | 46 | 989.3 |
| 20260504011735 | 64 | 242 | 7.8 | 10.4 | 0.00 | 0.00 | 0.00 | 46 | 989.4 |
| 20260504011313 | 64 | 250 | 12.2 | 11.3 | 0.00 | 0.00 | 0.00 | 46 | 989.5 |
| 20260504010314 | 65 | 240 | 8.7 | 8.7 | 0.00 | 0.00 | 0.00 | 45 | 989.6 |
| 20260504010234 | 65 | 243 | 13.0 | 13.0 | 0.00 | 0.00 | 0.00 | 45 | 989.7 |
| 20260504005313 | 65 | 261 | 13.9 | 13.0 | 0.00 | 0.00 | 0.00 | 45 | 989.8 |
| 20260504004735 | 65 | 247 | 14.8 | 17.4 | 0.00 | 0.00 | 0.00 | 44 | 990.0 |
| 20260504004313 | 65 | 250 | 13.9 | 15.6 | 0.00 | 0.00 | 0.00 | 44 | 990.1 |
| 20260504003313 | 66 | 250 | 13.9 | 15.6 | 0.00 | 0.00 | 0.00 | 43 | 990.0 |
| 20260504003235 | 66 | 252 | 14.8 | 14.8 | 0.00 | 0.00 | 0.00 | 43 | 990.0 |
| 20260504002315 | 66 | 251 | 13.0 | 14.8 | 0.00 | 0.00 | 0.00 | 42 | 990.1 |
| 20260504001735 | 67 | 252 | 15.6 | 17.4 | 0.00 | 0.00 | 0.00 | 41 | 990.2 |
| 20260504001314 | 67 | 253 | 15.6 | 15.6 | 0.00 | 0.00 | 0.00 | 41 | 990.3 |
| 20260504000314 | 67 | 247 | 19.1 | 18.2 | 0.00 | 0.00 | 0.00 | 41 | 990.6 |
| 20260504000234 | 67 | 248 | 19.1 | 19.1 | 0.00 | 0.00 | 0.00 | 41 | 990.6 |
| 20260503235314 | 67 | 248 | 20.0 | 22.6 | 0.00 | 0.00 | 0.00 | 40 | 990.7 |
| 20260503234734 | 67 | 251 | 19.1 | 22.6 | 0.00 | 0.00 | 0.00 | 40 | 990.8 |
| 20260503234314 | 67 | 247 | 22.6 | 21.7 | 0.00 | 0.00 | 0.00 | 40 | 990.9 |
| 20260503233314 | 67 | 254 | 22.6 | 22.6 | 0.00 | 0.00 | 0.00 | 41 | 991.1 |
| 20260503233234 | 67 | 251 | 20.9 | 25.2 | 0.00 | 0.00 | 0.00 | 41 | 991.0 |
| 20260503232314 | 67 | 257 | 21.7 | 22.6 | 0.00 | 0.00 | 0.00 | 41 | 991.3 |
| 20260503231736 | 68 | 252 | 18.2 | 24.3 | 0.00 | 0.00 | 0.00 | 40 | 991.6 |
| 20260503231313 | 68 | 258 | 14.8 | 19.1 | 0.00 | 0.00 | 0.00 | 39 | 991.7 |
| 20260503230313 | 69 | 263 | 18.2 | 21.7 | 0.00 | 0.00 | 0.00 | 37 | 992.0 |
| 20260503230235 | 69 | 262 | 15.6 | 18.2 | 0.00 | 0.00 | 0.00 | 37 | 992.0 |
| 20260503225313 | 68 | 259 | 15.6 | 20.9 | 0.00 | 0.00 | 0.00 | 37 | 992.1 |
| 20260503224735 | 68 | 255 | 17.4 | 20.0 | 0.00 | 0.00 | 0.00 | 37 | 991.9 |
| 20260503224314 | 68 | 262 | 10.4 | 20.9 | 0.00 | 0.00 | 0.00 | 37 | 992.5 |
| 20260503223314 | 69 | 275 | 20.0 | 20.9 | 0.00 | 0.00 | 0.00 | 36 | 992.6 |
| 20260503223234 | 69 | 277 | 24.3 | 34.8 | 0.00 | 0.00 | 0.00 | 35 | 992.7 |
| 20260503222315 | 71 | 263 | 18.2 | 20.9 | 0.00 | 0.00 | 0.00 | 27 | 992.6 |
| 20260503221735 | 71 | 251 | 26.1 | 28.7 | 0.00 | 0.00 | 0.00 | 27 | 992.3 |
| 20260503221314 | 71 | 253 | 27.8 | 27.8 | 0.00 | 0.00 | 0.00 | 27 | 992.2 |
| 20260503220314 | 71 | 247 | 28.7 | 31.3 | 0.00 | 0.00 | 0.00 | 26 | 992.2 |
| 20260503220234 | 71 | 249 | 25.2 | 31.3 | 0.00 | 0.00 | 0.00 | 26 | 992.2 |
| 20260503215314 | 72 | 251 | 25.2 | 26.1 | 0.00 | 0.00 | 0.00 | 26 | 992.5 |
| 20260503214734 | 72 | 253 | 30.4 | 33.0 | 0.00 | 0.00 | 0.00 | 27 | 992.4 |
| 20260503214314 | 72 | 248 | 33.0 | 37.4 | 0.00 | 0.00 | 0.00 | 27 | 992.5 |
| 20260503213314 | 71 | 237 | 33.0 | 34.8 | 0.00 | 0.00 | 0.00 | 28 | 992.5 |
| 20260503213236 | 71 | 249 | 26.9 | 33.0 | 0.00 | 0.00 | 0.00 | 28 | 992.6 |
| 20260503212314 | 71 | 249 | 25.2 | 26.1 | 0.00 | 0.00 | 0.00 | 29 | 992.9 |
| 20260503211735 | 71 | 243 | 25.2 | 31.3 | 0.00 | 0.00 | 0.00 | 30 | 992.9 |
| 20260503211313 | 71 | 236 | 25.2 | 28.7 | 0.00 | 0.00 | 0.00 | 31 | 992.9 |
| 20260503210313 | 71 | 241 | 19.1 | 21.7 | 0.00 | 0.00 | 0.00 | 30 | 993.1 |
| 20260503210235 | 71 | 242 | 24.3 | 24.3 | 0.00 | 0.00 | 0.00 | 30 | 993.1 |
| 20260503205313 | 72 | 223 | 24.3 | 26.1 | 0.00 | 0.00 | 0.00 | 31 | 993.4 |
| 20260503204736 | 72 | 251 | 20.9 | 30.4 | 0.00 | 0.00 | 0.00 | 30 | 993.6 |
| 20260503204315 | 73 | 240 | 21.7 | 25.2 | 0.00 | 0.00 | 0.00 | 29 | 993.6 |
| 20260503203314 | 74 | 240 | 20.9 | 22.6 | 0.00 | 0.00 | 0.00 | 28 | 994.0 |
| 20260503203234 | 74 | 235 | 21.7 | 26.9 | 0.00 | 0.00 | 0.00 | 28 | 994.1 |
| 20260503202314 | 72 | 261 | 21.7 | 28.7 | 0.00 | 0.00 | 0.00 | 28 | 994.4 |
| 20260503201734 | 73 | 251 | 20.9 | 26.1 | 0.00 | 0.00 | 0.00 | 28 | 994.8 |
| 20260503201314 | 73 | 242 | 20.9 | 26.9 | 0.00 | 0.00 | 0.00 | 30 | 995.0 |
| 20260503200314 | 73 | 235 | 17.4 | 22.6 | 0.00 | 0.00 | 0.00 | 31 | 995.4 |
| 20260503200234 | 73 | 238 | 19.1 | 20.0 | 0.00 | 0.00 | 0.00 | 30 | 995.5 |
| 20260503195314 | 72 | 234 | 20.0 | 26.1 | 0.00 | 0.00 | 0.00 | 32 | 995.6 |
| 20260503194735 | 72 | 230 | 20.0 | 25.2 | 0.00 | 0.00 | 0.00 | 32 | 996.0 |
| 20260503194314 | 72 | 228 | 20.0 | 22.6 | 0.00 | 0.00 | 0.00 | 31 | 996.2 |
| 20260503193314 | 71 | 221 | 13.9 | 20.0 | 0.00 | 0.00 | 0.00 | 34 | 996.5 |
| 20260503193234 | 70 | 230 | 15.6 | 19.1 | 0.00 | 0.00 | 0.00 | 33 | 996.5 |
| 20260503192314 | 70 | 234 | 15.6 | 20.9 | 0.00 | 0.00 | 0.00 | 34 | 996.8 |
| 20260503191738 | 70 | 247 | 18.2 | 22.6 | 0.00 | 0.00 | 0.00 | 33 | 997.1 |
| 20260503191314 | 70 | 248 | 20.9 | 28.7 | 0.00 | 0.00 | 0.00 | 33 | 997.2 |
| 20260503190313 | 69 | 232 | 25.2 | 31.3 | 0.00 | 0.00 | 0.00 | 33 | 997.5 |
| 20260503190235 | 69 | 243 | 24.3 | 28.7 | 0.00 | 0.00 | 0.00 | 34 | 997.5 |
| 20260503185314 | 69 | 239 | 20.0 | 25.2 | 0.00 | 0.00 | 0.00 | 34 | 997.7 |
| 20260503184735 | 69 | 245 | 20.9 | 20.0 | 0.00 | 0.00 | 0.00 | 33 | 997.9 |
| 20260503184315 | 69 | 236 | 18.2 | 21.7 | 0.00 | 0.00 | 0.00 | 34 | 998.0 |
| 20260503183313 | 69 | 232 | 19.1 | 22.6 | 0.00 | 0.00 | 0.00 | 34 | 998.3 |
| 20260503183235 | 69 | 230 | 18.2 | 20.9 | 0.00 | 0.00 | 0.00 | 34 | 998.3 |
| 20260503182313 | 70 | 235 | 21.7 | 21.7 | 0.00 | 0.00 | 0.00 | 33 | 998.5 |
| 20260503181736 | 71 | 225 | 13.0 | 15.6 | 0.00 | 0.00 | 0.00 | 33 | 998.7 |
| 20260503181313 | 71 | 243 | 24.3 | 26.9 | 0.00 | 0.00 | 0.00 | 34 | 998.9 |
| 20260503180315 | 70 | 224 | 15.6 | 22.6 | 0.00 | 0.00 | 0.00 | 34 | 999.1 |
| 20260503180235 | 70 | 233 | 14.8 | 22.6 | 0.00 | 0.00 | 0.00 | 33 | 999.2 |
| 20260503175314 | 69 | 235 | 14.8 | 17.4 | 0.00 | 0.00 | 0.00 | 34 | 999.4 |
| 20260503174734 | 70 | 245 | 17.4 | 21.7 | 0.00 | 0.00 | 0.00 | 34 | 999.6 |
| 20260503174314 | 70 | 236 | 20.0 | 24.3 | 0.00 | 0.00 | 0.00 | 35 | 999.7 |
| 20260503173313 | 69 | 240 | 15.6 | 17.4 | 0.00 | 0.00 | 0.00 | 34 | 1000.0 |
| 20260503173235 | 69 | 240 | 17.4 | 19.1 | 0.00 | 0.00 | 0.00 | 34 | 1000.1 |
| 20260503172314 | 68 | 246 | 15.6 | 20.0 | 0.00 | 0.00 | 0.00 | 33 | 1000.5 |
| 20260503171735 | 68 | 225 | 13.0 | 12.2 | 0.00 | 0.00 | 0.00 | 33 | 1000.8 |
| 20260503171315 | 68 | 237 | 13.0 | 20.0 | 0.00 | 0.00 | 0.00 | 33 | 1000.8 |
| 20260503170313 | 67 | 237 | 13.9 | 21.7 | 0.00 | 0.00 | 0.00 | 34 | 1001.3 |
| 20260503170235 | 67 | 244 | 12.2 | 13.0 | 0.00 | 0.00 | 0.00 | 33 | 1001.3 |
| 20260503150313 | 60 | 247 | 13.9 | 18.2 | 0.00 | 0.00 | 0.00 | 43 | 1003.7 |
| 20260503150235 | 60 | 246 | 14.8 | 15.6 | 0.00 | 0.00 | 0.00 | 43 | 1003.7 |
| 20260503140313 | 54 | 244 | 13.0 | 15.6 | 0.00 | 0.00 | 0.00 | 52 | 1005.1 |
| 20260503140235 | 54 | 240 | 12.2 | 14.8 | 0.00 | 0.00 | 0.00 | 52 | 1005.1 |
| 20260503131314 | 44 | 243 | 6.1 | 8.7 | 0.00 | 0.00 | 0.00 | 66 | 1005.7 |
| 20260503130314 | 42 | 243 | 7.8 | 11.3 | 0.00 | 0.00 | 0.00 | 67 | 1005.7 |
| 20260503130234 | 42 | 237 | 8.7 | 10.4 | 0.00 | 0.00 | 0.00 | 68 | 1005.8 |
| 20260503110313 | 31 | 273 | 2.6 | 2.6 | 0.00 | 0.00 | 0.00 | 74 | 1006.3 |
| 20260503110236 | 31 | 273 | 2.6 | 2.6 | 0.00 | 0.00 | 0.00 | 75 | 1006.3 |
| 20260503100236 | 31 | 292 | 4.3 | 4.3 | 0.00 | 0.00 | 0.00 | 76 | 1006.8 |
| 20260503090313 | 30 | 274 | 5.2 | 7.0 | 0.00 | 0.00 | 0.00 | 75 | 1006.7 |
| 20260503090236 | 31 | 276 | 5.2 | 6.1 | 0.00 | 0.00 | 0.00 | 75 | 1006.7 |
| 20260503081313 | 32 | 278 | 5.2 | 6.1 | 0.00 | 0.00 | 0.00 | 76 | 1006.6 |
| 20260503080315 | 32 | 275 | 5.2 | 7.0 | 0.00 | 0.00 | 0.00 | 76 | 1006.7 |
| 20260503080235 | 32 | 280 | 6.1 | 7.8 | 0.00 | 0.00 | 0.00 | 76 | 1006.7 |
| 20260503072314 | 33 | 281 | 5.2 | 6.1 | 0.00 | 0.00 | 0.00 | 74 | 1006.9 |
| 20260503071734 | 34 | 274 | 4.3 | 7.0 | 0.00 | 0.00 | 0.00 | 73 | 1006.8 |
| 20260503071314 | 34 | 273 | 5.2 | 6.1 | 0.00 | 0.00 | 0.00 | 73 | 1006.8 |
| 20260503070314 | 35 | 276 | 7.0 | 7.8 | 0.00 | 0.00 | 0.00 | 67 | 1006.7 |
| 20260503070236 | 36 | 278 | 6.1 | 7.8 | 0.00 | 0.00 | 0.00 | 67 | 1006.7 |
| 20260503060314 | 40 | 26 | 4.3 | 6.1 | 0.00 | 0.00 | 0.00 | 68 | 1006.6 |
| 20260503060236 | 39 | 30 | 5.2 | 5.2 | 0.00 | 0.00 | 0.00 | 69 | 1006.6 |
| 20260503054735 | 39 | 346 | 7.8 | 8.7 | 0.00 | 0.00 | 0.00 | 67 | 1006.9 |
| 20260503054314 | 39 | 336 | 7.0 | 11.3 | 0.00 | 0.00 | 0.00 | 67 | 1006.9 |
| 20260503053314 | 40 | 338 | 6.1 | 7.8 | 0.00 | 0.00 | 0.00 | 66 | 1006.8 |
| 20260503053234 | 40 | 333 | 7.0 | 7.8 | 0.00 | 0.00 | 0.00 | 66 | 1006.8 |